• In Uzbekistan
  • List of Countries
  • For 7 days
  • Water Temperature
  • Satellite Maps
  • Weather Map
  • Weather Widgets
  • user-avatar
    Login

    Hourly Weather Belugino

    Today, 21 August, Tuesday

    Time Temperature Precipitation Wind Pressure Humidity
    00:00 +18°C° 0 mm 2 mps 742 mmHg 86%
    01:00 +17°C° 0 mm 2 mps 742 mmHg 87%
    02:00 +17°C° 0 mm 2 mps 741 mmHg 89%
    03:00 +17°C° 0 mm 2 mps 741 mmHg 90%
    04:00 +17°C° 0 mm 3 mps 741 mmHg 90%
    05:00 +17°C° 0 mm 3 mps 740 mmHg 90%
    06:00 +17°C° 0 mm 4 mps 740 mmHg 90%
    07:00 +19°C° 0 mm 5 mps 739 mmHg 82%
    08:00 +21°C° 0 mm 6 mps 739 mmHg 75%
    09:00 +23°C° 0 mm 7 mps 739 mmHg 68%
    10:00 +24°C° 0.2 mm 7 mps 739 mmHg 65%
    11:00 +26°C° 0.2 mm 8 mps 738 mmHg 63%
    12:00 +27°C° 0.2 mm 8 mps 738 mmHg 60%
    13:00 +26°C° 1 mm 8 mps 738 mmHg 65%
    14:00 +24°C° 1 mm 7 mps 737 mmHg 70%
    15:00 +23°C° 1 mm 7 mps 737 mmHg 74%
    16:00 +22°C° 0.9 mm 6 mps 737 mmHg 77%
    17:00 +21°C° 0.9 mm 5 mps 737 mmHg 80%
    18:00 +20°C° 0.9 mm 5 mps 737 mmHg 82%
    19:00 +19°C° 0 mm 4 mps 737 mmHg 83%
    20:00 +18°C° 0 mm 4 mps 738 mmHg 84%
    21:00 +15°C° 0 mm 4 mps 738 mmHg 84%
    22:00 +14°C° 0 mm 4 mps 739 mmHg 85%
    23:00 +13°C° 0 mm 3 mps 739 mmHg 85%

    Tomorrow, 22 August, Wednesday

    Time Temperature Precipitation Wind Pressure Humidity
    00:00 +12°C° 0 mm 3 mps 740 mmHg 86%
    01:00 +12°C° 0 mm 3 mps 740 mmHg 87%
    02:00 +11°C° 0 mm 3 mps 740 mmHg 87%
    03:00 +10°C° 0 mm 3 mps 741 mmHg 88%
    04:00 +10°C° 0 mm 3 mps 741 mmHg 88%
    05:00 +10°C° 0 mm 3 mps 741 mmHg 88%
    06:00 +10°C° 0 mm 3 mps 742 mmHg 88%
    07:00 +11°C° 0 mm 4 mps 742 mmHg 81%
    08:00 +13°C° 0 mm 5 mps 742 mmHg 74%
    09:00 +14°C° 0 mm 5 mps 742 mmHg 67%
    10:00 +15°C° 0 mm 5 mps 743 mmHg 62%
    11:00 +16°C° 0 mm 5 mps 743 mmHg 57%
    12:00 +19°C° 0 mm 6 mps 743 mmHg 52%
    13:00 +19°C° 0 mm 6 mps 744 mmHg 51%
    14:00 +19°C° 0 mm 6 mps 744 mmHg 49%
    15:00 +20°C° 0 mm 6 mps 744 mmHg 47%
    16:00 +19°C° 0 mm 5 mps 744 mmHg 51%
    17:00 +19°C° 0 mm 4 mps 745 mmHg 54%
    18:00 +18°C° 0 mm 3 mps 745 mmHg 58%
    19:00 +17°C° 0 mm 3 mps 745 mmHg 62%
    20:00 +14°C° 0 mm 3 mps 746 mmHg 66%
    21:00 +12°C° 0 mm 3 mps 746 mmHg 70%
    22:00 +11°C° 0 mm 3 mps 747 mmHg 72%
    23:00 +11°C° 0 mm 3 mps 747 mmHg 74%

    Day after tomorrow, 23 August, Thursday

    Time Temperature Precipitation Wind Pressure Humidity
    00:00 +10°C° 0 mm 2 mps 748 mmHg 76%
    01:00 +9°C° 0 mm 2 mps 748 mmHg 78%
    02:00 +9°C° 0 mm 2 mps 748 mmHg 79%
    03:00 +9°C° 0 mm 2 mps 748 mmHg 80%
    04:00 +8°C° 0 mm 2 mps 749 mmHg 81%
    05:00 +8°C° 0 mm 2 mps 749 mmHg 82%
    06:00 +8°C° 0 mm 2 mps 749 mmHg 83%
    07:00 +10°C° 0 mm 2 mps 749 mmHg 75%
    08:00 +13°C° 0 mm 2 mps 750 mmHg 68%
    09:00 +16°C° 0 mm 2 mps 750 mmHg 60%
    10:00 +17°C° 0 mm 2 mps 750 mmHg 55%
    11:00 +18°C° 0 mm 2 mps 750 mmHg 49%
    12:00 +19°C° 0 mm 2 mps 750 mmHg 43%
    13:00 +20°C° 0 mm 2 mps 750 mmHg 42%
    14:00 +20°C° 0 mm 2 mps 749 mmHg 41%
    15:00 +20°C° 0 mm 2 mps 749 mmHg 40%
    16:00 +20°C° 0 mm 2 mps 749 mmHg 44%
    17:00 +21°C° 0 mm 1 mps 749 mmHg 48%
    18:00 +20°C° 0 mm 1 mps 749 mmHg 52%
    19:00 +19°C° 0 mm 1 mps 749 mmHg 56%
    20:00 +16°C° 0 mm 1 mps 749 mmHg 60%
    21:00 +14°C° 0 mm 1 mps 749 mmHg 64%
    22:00 +13°C° 0 mm 1 mps 749 mmHg 66%
    23:00 +13°C° 0 mm 1 mps 749 mmHg 68%

    24 August, Friday

    Time Temperature Precipitation Wind Pressure Humidity
    00:00 +12°C° 0 mm 1 mps 749 mmHg 70%
    01:00 +12°C° 0 mm 1 mps 749 mmHg 72%
    02:00 +12°C° 0 mm 1 mps 749 mmHg 73%
    03:00 +11°C° 0 mm 1 mps 749 mmHg 74%
    04:00 +11°C° 0 mm 1 mps 749 mmHg 76%
    05:00 +11°C° 0 mm 1 mps 749 mmHg 77%
    06:00 +11°C° 0 mm 1 mps 749 mmHg 78%
    07:00 +13°C° 0 mm 1 mps 749 mmHg 71%
    08:00 +15°C° 0 mm 2 mps 749 mmHg 65%
    09:00 +17°C° 0 mm 2 mps 749 mmHg 59%
    10:00 +19°C° 0 mm 2 mps 749 mmHg 54%
    11:00 +20°C° 0 mm 2 mps 749 mmHg 50%
    12:00 +21°C° 0 mm 2 mps 749 mmHg 46%
    13:00 +23°C° 0 mm 2 mps 749 mmHg 45%
    14:00 +23°C° 0 mm 2 mps 748 mmHg 44%
    15:00 +24°C° 0 mm 2 mps 748 mmHg 43%
    16:00 +23°C° 0 mm 2 mps 748 mmHg 47%
    17:00 +23°C° 0 mm 2 mps 747 mmHg 51%
    18:00 +21°C° 0 mm 2 mps 747 mmHg 55%
    19:00 +19°C° 0 mm 2 mps 747 mmHg 59%
    20:00 +17°C° 0 mm 2 mps 747 mmHg 64%
    21:00 +15°C° 0 mm 2 mps 747 mmHg 68%
    22:00 +15°C° 0 mm 2 mps 747 mmHg 69%
    23:00 +14°C° 0 mm 2 mps 747 mmHg 70%

    25 August, Saturday

    Time Temperature Precipitation Wind Pressure Humidity
    00:00 +14°C° 0 mm 2 mps 747 mmHg 72%
    01:00 +14°C° 0 mm 2 mps 747 mmHg 73%
    02:00 +13°C° 0 mm 2 mps 747 mmHg 74%
    03:00 +13°C° 0 mm 2 mps 747 mmHg 74%
    04:00 +13°C° 0 mm 2 mps 747 mmHg 75%
    05:00 +13°C° 0 mm 2 mps 747 mmHg 76%
    06:00 +12°C° 0 mm 2 mps 747 mmHg 77%
    07:00 +15°C° 0 mm 2 mps 747 mmHg 71%
    08:00 +17°C° 0 mm 2 mps 747 mmHg 66%
    09:00 +19°C° 0 mm 3 mps 747 mmHg 60%
    10:00 +20°C° 0 mm 3 mps 747 mmHg 55%
    11:00 +22°C° 0 mm 3 mps 747 mmHg 50%
    12:00 +25°C° 0 mm 4 mps 747 mmHg 45%
    13:00 +25°C° 0 mm 4 mps 747 mmHg 45%
    14:00 +25°C° 0 mm 4 mps 747 mmHg 44%
    15:00 +26°C° 0 mm 4 mps 746 mmHg 44%
    16:00 +25°C° 0 mm 3 mps 746 mmHg 48%
    17:00 +24°C° 0 mm 3 mps 746 mmHg 53%
    18:00 +24°C° 0 mm 2 mps 746 mmHg 57%
    19:00 +21°C° 0 mm 2 mps 746 mmHg 61%
    20:00 +19°C° 0 mm 2 mps 746 mmHg 65%
    21:00 +17°C° 0 mm 2 mps 746 mmHg 68%
    22:00 +16°C° 0 mm 2 mps 746 mmHg 69%
    23:00 +16°C° 0 mm 2 mps 746 mmHg 70%

    26 August, Sunday

    Time Temperature Precipitation Wind Pressure Humidity
    00:00 +15°C° 0 mm 2 mps 746 mmHg 70%
    01:00 +15°C° 0 mm 2 mps 746 mmHg 71%
    02:00 +14°C° 0 mm 2 mps 746 mmHg 71%
    03:00 +14°C° 0 mm 2 mps 746 mmHg 71%
    04:00 +14°C° 0 mm 2 mps 747 mmHg 73%
    05:00 +14°C° 0 mm 2 mps 747 mmHg 74%
    06:00 +13°C° 0 mm 2 mps 747 mmHg 75%
    07:00 +16°C° 0 mm 2 mps 747 mmHg 70%
    08:00 +18°C° 0 mm 3 mps 747 mmHg 65%
    09:00 +20°C° 0 mm 3 mps 747 mmHg 59%
    10:00 +22°C° 0 mm 3 mps 747 mmHg 54%
    11:00 +24°C° 0 mm 3 mps 747 mmHg 49%
    12:00 +26°C° 0 mm 4 mps 747 mmHg 44%
    13:00 +26°C° 0 mm 4 mps 747 mmHg 43%
    14:00 +27°C° 0 mm 3 mps 747 mmHg 43%
    15:00 +27°C° 0 mm 3 mps 746 mmHg 42%
    16:00 +26°C° 0 mm 3 mps 746 mmHg 47%
    17:00 +26°C° 0 mm 2 mps 746 mmHg 52%
    18:00 +25°C° 0 mm 2 mps 746 mmHg 56%
    19:00 +23°C° 0 mm 2 mps 746 mmHg 60%
    20:00 +20°C° 0 mm 2 mps 746 mmHg 64%
    21:00 +19°C° 0 mm 2 mps 746 mmHg 68%
    22:00 +18°C° 0 mm 2 mps 746 mmHg 69%
    23:00 +18°C° 0 mm 2 mps 747 mmHg 70%
    Show more